Weather History for Prairie Du Chien, WI

Change the Weather History Date:

Friday, April 5, 2013

  Actual Average Record
Temperature  
Mean Temperature 38 °F -  
Max Temperature 50 °F 54 °F 80 °F (1991)
Min Temperature 27 °F 31 °F 19 °F (1971)
Degree Days  
Heating Degree Days 27    
Moisture  
Dew Point 23 °F    
Average Humidity 54    
Maximum Humidity 85    
Minimum Humidity 29    
Precipitation  
Precipitation 0.00 in - - ()
Sea Level Pressure  
Sea Level Pressure 30.14 in    
Wind  
Wind Speed 3 mph (ESE)    
Max Wind Speed 20 mph    
Max Gust Speed 24 mph    
Visibility 10 miles    
Events      
Averages and records for this station are not official NWS values.
T = Trace of Precipitation, MM = Missing Value Source: NWS Daily Summary

Daily Weather History Graph

Daily Weather History Graph

Search for Another Location

Airport:

Trip Planner

Search our weather history database for the weather conditions in past years. The results will help you decide how hot, cold, wet, or windy it might be!

Date:

Astronomy

Apr. 05, 2013 Rise Set
Actual Time 6:39 AM CDT 7:35 PM CDT
Civil Twilight 6:10 AM CDT 8:04 PM CDT
Nautical Twilight 5:35 AM CDT 8:39 PM CDT
Astronomical Twilight 5:00 AM CDT 9:15 PM CDT
Moon 3:53 AM CDT (4/5) 2:53 PM CDT (4/5)
Length of Visible Light 13h 54m
Length of Day
12h 56m
Waning Crescent, 23% of the Moon is Illuminated
Apr 5
Waning Crescent
Apr 10
New
Apr 18
First Quarter
Apr 25
Full
May 2
Last Quarter

Hourly Weather History & Observations

Time (CDT) Temp. Windchill Dew Point Humidity Pressure Visibility Wind Dir Wind Speed Gust Speed Precip Events Conditions
12:15 AM 33.3 °F - 27.5 °F 79% 30.10 in 10.0 mi Calm Calm - N/A   Clear
12:35 AM 32.0 °F - 27.1 °F 82% 30.10 in 10.0 mi Calm Calm - N/A   Clear
12:55 AM 32.0 °F - 26.6 °F 80% 30.11 in 10.0 mi Calm Calm - N/A   Clear
1:15 AM 31.5 °F - 26.4 °F 82% 30.11 in 10.0 mi Calm Calm - N/A   Clear
1:35 AM 30.4 °F - 25.7 °F 83% 30.11 in 10.0 mi Calm Calm - N/A   Clear
1:55 AM 30.9 °F - 26.2 °F 83% 30.12 in 10.0 mi Calm Calm - N/A   Clear
2:15 AM 30.9 °F - 25.5 °F 80% 30.12 in 10.0 mi Calm Calm - N/A   Clear
2:35 AM 30.7 °F - 25.9 °F 82% 30.12 in 10.0 mi Calm Calm - N/A   Clear
2:55 AM 29.1 °F - 25.2 °F 85% 30.12 in 10.0 mi Calm Calm - N/A   Clear
3:15 AM 31.8 °F - 25.7 °F 78% 30.12 in 10.0 mi Calm Calm - N/A   Clear
3:35 AM 32.0 °F - 26.8 °F 81% 30.13 in 10.0 mi Calm Calm - N/A   Clear
3:55 AM 31.8 °F 28.5 °F 25.7 °F 78% 30.14 in 10.0 mi NNW 3.5 mph - N/A   Clear
4:15 AM 31.8 °F 28.5 °F 26.4 °F 80% 30.15 in 10.0 mi NNW 3.5 mph - N/A   Clear
4:35 AM 31.8 °F 28.5 °F 26.2 °F 80% 30.16 in 10.0 mi NNW 3.5 mph - N/A   Clear
4:55 AM 30.0 °F - 25.2 °F 82% 30.17 in 10.0 mi Calm Calm - N/A   Clear
5:15 AM 31.8 °F - 25.5 °F 78% 30.18 in 10.0 mi Calm Calm - N/A   Clear
5:35 AM 29.1 °F - 24.4 °F 83% 30.18 in 10.0 mi Calm Calm - N/A   Clear
5:55 AM 28.4 °F - 23.5 °F 82% 30.19 in 10.0 mi Calm Calm - N/A   Clear
6:15 AM 29.1 °F - 24.1 °F 81% 30.20 in 10.0 mi Calm Calm - N/A   Clear
6:35 AM 27.5 °F - 23.0 °F 83% 30.20 in 10.0 mi Calm Calm - N/A   Clear
6:55 AM 28.2 °F - 23.0 °F 81% 30.21 in 10.0 mi Calm Calm - N/A   Clear
7:15 AM 27.3 °F - 23.4 °F 85% 30.21 in 10.0 mi Calm Calm - N/A   Clear
7:35 AM 28.9 °F - 24.4 °F 83% 30.22 in 10.0 mi Calm Calm - N/A   Clear
7:55 AM 30.6 °F - 26.1 °F 83% 30.23 in 10.0 mi Calm Calm - N/A   Clear
8:15 AM 32.4 °F - 26.4 °F 79% 30.23 in 10.0 mi Calm Calm - N/A   Clear
8:35 AM 34.0 °F - 27.1 °F 76% 30.24 in 10.0 mi Calm Calm - N/A   Clear
8:55 AM 35.8 °F - 26.8 °F 70% 30.24 in 10.0 mi Calm Calm - N/A   Clear
9:15 AM 37.6 °F - 25.7 °F 62% 30.23 in 10.0 mi Calm Calm - N/A   Clear
9:35 AM 39.6 °F 36.3 °F 23.4 °F 52% 30.23 in 10.0 mi ESE 4.6 mph - N/A   Clear
9:55 AM 41.0 °F 36.4 °F 20.1 °F 43% 30.23 in 10.0 mi East 6.9 mph - N/A   Clear
10:15 AM 41.5 °F 38.6 °F 20.5 °F 43% 30.23 in 10.0 mi East 4.6 mph - N/A   Clear
10:35 AM 42.6 °F 39.0 °F 19.8 °F 40% 30.23 in 10.0 mi East 5.8 mph - N/A   Clear
10:55 AM 43.3 °F - 19.4 °F 38% 30.22 in 10.0 mi Calm Calm - N/A   Clear
11:15 AM 45.0 °F 41.8 °F 18.9 °F 35% 30.22 in 10.0 mi SSE 5.8 mph - N/A   Clear
11:35 AM 45.5 °F 43.2 °F 18.0 °F 33% 30.21 in 10.0 mi South 4.6 mph - N/A   Clear
11:55 AM 45.3 °F 44.0 °F 17.1 °F 32% 30.21 in 10.0 mi SE 3.5 mph - N/A   Clear
12:15 PM 46.6 °F - 18.7 °F 33% 30.21 in 10.0 mi SE 5.8 mph - N/A   Clear
12:35 PM 46.9 °F - 17.6 °F 31% 30.20 in 10.0 mi ENE 3.5 mph - N/A   Clear
12:55 PM 47.5 °F - 18.7 °F 32% 30.20 in 10.0 mi ESE 4.6 mph - N/A   Clear
1:15 PM 47.8 °F - 17.8 °F 30% 30.19 in 10.0 mi East 5.8 mph - N/A   Clear
1:35 PM 47.7 °F - 18.1 °F 31% 30.18 in 10.0 mi ESE 6.9 mph - N/A   Clear
1:55 PM 49.1 °F - 19.0 °F 30% 30.17 in 10.0 mi East 6.9 mph - N/A   Clear
2:15 PM 49.1 °F - 18.3 °F 30% 30.16 in 10.0 mi ENE 5.8 mph - N/A   Clear
2:35 PM 49.3 °F - 18.1 °F 29% 30.14 in 10.0 mi SE 4.6 mph - N/A   Clear
2:55 PM 49.6 °F - 18.9 °F 30% 30.14 in 10.0 mi ESE 3.5 mph - N/A   Scattered Clouds
3:15 PM 49.1 °F - 19.0 °F 30% 30.13 in 10.0 mi ESE 8.1 mph - N/A   Mostly Cloudy
3:35 PM 49.1 °F - 18.5 °F 30% 30.13 in 10.0 mi SSE 4.6 mph - N/A   Overcast
3:55 PM 49.1 °F - 18.9 °F 30% 30.13 in 10.0 mi ESE 5.8 mph - N/A   Overcast
4:15 PM 49.1 °F - 19.0 °F 30% 30.13 in 10.0 mi SE 4.6 mph - N/A   Overcast
4:35 PM 49.1 °F - 19.4 °F 31% 30.12 in 10.0 mi Calm Calm - N/A   Overcast
4:55 PM 49.1 °F - 19.6 °F 31% 30.12 in 10.0 mi Calm Calm - N/A   Overcast
5:15 PM 48.2 °F - 20.1 °F 33% 30.12 in 10.0 mi SE 4.6 mph - N/A   Overcast
5:35 PM 47.5 °F - 21.0 °F 35% 30.11 in 10.0 mi ESE 3.5 mph - N/A   Overcast
5:55 PM 47.3 °F - 23.7 °F 40% 30.09 in 10.0 mi East 8.1 mph - N/A   Overcast
6:15 PM 47.3 °F - 24.1 °F 40% 30.09 in 10.0 mi East 3.5 mph - N/A   Overcast
6:35 PM 47.3 °F - 23.7 °F 40% 30.09 in 10.0 mi ENE 3.5 mph - N/A   Overcast
6:55 PM 46.9 °F - 24.3 °F 41% 30.07 in 10.0 mi East 10.4 mph - N/A   Overcast
7:15 PM 46.8 °F - 24.3 °F 41% 30.06 in 10.0 mi East 6.9 mph - N/A   Overcast
7:35 PM 46.4 °F 42.4 °F 24.6 °F 42% 30.06 in 10.0 mi East 8.1 mph - N/A   Overcast
7:55 PM 45.9 °F 42.3 °F 25.0 °F 44% 30.05 in 10.0 mi East 6.9 mph - N/A   Overcast
8:15 PM 45.5 °F 42.5 °F 25.2 °F 45% 30.05 in 10.0 mi ESE 5.8 mph - N/A   Overcast
8:35 PM 45.1 °F 42.0 °F 25.3 °F 46% 30.04 in 10.0 mi ESE 5.8 mph - N/A   Mostly Cloudy
8:55 PM 45.3 °F 41.6 °F 25.2 °F 45% 30.04 in 10.0 mi ESE 6.9 mph - N/A   Clear
9:15 PM 45.5 °F 40.3 °F 25.3 °F 45% 30.04 in 10.0 mi ESE 10.4 mph - N/A   Scattered Clouds
9:35 PM 45.5 °F 39.9 °F 25.0 °F 45% 30.03 in 10.0 mi East 11.5 mph - N/A   Mostly Cloudy
9:55 PM 45.5 °F 38.9 °F 24.6 °F 44% 30.01 in 10.0 mi ESE 15.0 mph - N/A   Overcast
10:15 PM 45.5 °F 40.3 °F 24.6 °F 44% 30.03 in 10.0 mi ESE 10.4 mph 17.3 mph N/A   Mostly Cloudy
10:35 PM 45.5 °F 39.9 °F 24.8 °F 44% 30.02 in 10.0 mi East 11.5 mph - N/A   Overcast
10:55 PM 45.3 °F 40.6 °F 25.3 °F 46% 30.01 in 10.0 mi ESE 9.2 mph 17.3 mph N/A   Overcast
11:15 PM 45.3 °F 39.7 °F 25.5 °F 46% 30.01 in 10.0 mi ESE 11.5 mph 16.1 mph N/A   Overcast
11:35 PM 45.3 °F 37.6 °F 26.1 °F 47% 30.00 in 10.0 mi ESE 19.6 mph 24.2 mph N/A   Overcast
11:55 PM 44.8 °F 38.3 °F 27.9 °F 52% 30.01 in 10.0 mi ESE 13.8 mph 21.9 mph N/A   Mostly Cloudy